[[{"header":{"parameterUnit":"m.s-1","parameterCategory":1,"la1":30.2992,"la2":30.254,"lo1":-89.0895,"lo2":-89.0443,"dy":0.0025,"dx":0.0025,"nx":19,"ny":19,"refTime":"2026-04-10T03:00:00:Z","depth":0,"parameterNumber":2,"parameterNumberName":"U-component_of_WINDS"},"data":[0,0,0,-1.5295,-1.5295,-1.5272,-1.5272,-1.5268,-1.5268,0,0,0,0,0,0,0,0,0,0,0,-1.5317,-1.5317,-1.5295,-1.5295,-1.5272,-1.5272,-1.5268,-1.5268,0,0,0,0,0,0,0,0,0,0,0,-1.5316,-1.5317,-1.5318,-1.5295,-1.5272,-1.5271,-1.5268,-1.5276,0,0,0,0,0,0,0,0,0,0,-1.5294,-1.5329,-1.5317,-1.5318,-1.5295,-1.5272,-1.5271,-1.5276,-1.5276,-1.5289,0,-1.5305,0,-1.5287,-1.527,-1.527,0,0,0,-1.5283,-1.533,-1.531,-1.5318,-1.5294,-1.5272,-1.5279,-1.5275,-1.5275,-1.5289,-1.5305,-1.5304,-1.5287,-1.527,-1.527,-1.5389,-1.539,0,0,-1.5284,-1.5321,-1.531,-1.531,-1.5315,-1.528,-1.5278,-1.5275,-1.5295,-1.5305,-1.5304,-1.5287,-1.527,-1.527,-1.5387,-1.5389,0,0,0,-1.5296,-1.5322,-1.5302,-1.5311,-1.5305,-1.5279,-1.5278,-1.5295,-1.5285,-1.5304,-1.5287,-1.527,-1.527,-1.5386,-1.5388,-1.5478,0,0,0,-1.5296,-1.5329,-1.5303,-1.5325,-1.5306,-1.53,-1.5299,-1.5286,-1.5284,-1.5287,-1.527,-1.5271,-1.5385,-1.5387,-1.5473,-1.5515,0,0,0,-1.5313,-1.533,-1.5332,-1.5327,-1.5318,-1.5299,-1.5288,-1.5284,-1.5275,-1.527,-1.5271,-1.5384,-1.5387,-1.5468,-1.5507,-1.5558,0,0,0,-1.5342,-1.5412,-1.5335,-1.5407,-1.5319,-1.5355,-1.5288,-1.5313,-1.5319,-1.527,-1.5385,-1.5388,-1.5467,-1.5502,-1.5553,-1.5608,-1.5634,0,0,-1.5451,-1.5426,-1.5466,-1.5396,-1.5455,-1.5355,-1.5427,-1.5398,-1.5364,-1.5383,-1.5385,-1.5475,-1.5507,-1.5557,-1.5765,-1.5786,0,0,0,-1.5513,-1.5542,-1.555,-1.5558,-1.5539,-1.5525,-1.5482,-1.5471,-1.5485,-1.5381,-1.5505,-1.5523,-1.5551,-1.5575,-1.5593,-1.5615,-1.54,-1.54,-1.54,-1.572,-1.5673,-1.5736,-1.5688,-1.5697,-1.5652,-1.5655,-1.5634,-1.5583,-1.5613,-1.5619,-1.575,-1.578,-1.5793,-1.5817,-1.5643,-1.5643,-1.5643,-1.5644,-1.5876,-1.5911,-1.5843,-1.588,-1.5831,-1.5862,-1.5822,-1.5786,-1.5807,-1.5742,-1.5764,-1.5698,-1.5818,-1.5836,-1.565,-1.5649,-1.5648,-1.5647,-1.5647,-1.6008,-1.6016,-1.6003,-1.6011,-1.6023,-1.5971,-1.5996,-1.5949,-1.5906,-1.5928,-1.593,-1.5928,-1.5922,-1.5932,-1.5932,-1.5933,-1.5933,-1.5933,-1.5934,-1.6149,-1.6131,-1.6158,-1.6144,-1.6144,-1.6139,-1.6095,-1.6094,-1.6082,-1.6046,-1.6046,-1.5994,-1.5838,-1.58,-1.5941,-1.5939,-1.5939,-1.5938,-1.5937,-1.6327,-1.628,-1.6321,-1.6322,-1.6302,-1.6318,-1.6259,-1.6261,-1.6254,-1.6268,-1.6211,-1.6103,-1.6075,-1.606,-1.6029,-1.622,-1.622,-1.622,-1.622,-1.6439,-1.642,-1.6453,-1.6457,-1.6455,-1.6406,-1.6456,-1.6424,-1.6383,-1.6375,-1.6341,-1.6295,-1.6282,-1.6262,-1.6243,-1.6213,-1.6446,-1.6447,-1.6447,-1.6547,-1.6526,-1.6576,-1.6536,-1.6518,-1.6504,-1.6549,-1.6557,-1.6501,-1.6455,-1.6369,-1.636,-1.6285,-1.6263,-1.6216,-1.6188,-1.6132,0,0]},{"header":{"parameterUnit":"m.s-1","parameterCategory":1,"la1":30.2992,"la2":30.254,"lo1":-89.0895,"lo2":-89.0443,"dy":0.0025,"dx":0.0025,"nx":19,"ny":19,"refTime":"2026-04-10T03:00:00:Z","depth":0,"parameterNumber":3,"parameterNumberName":"V-component_of_WINDS"},"data":[0,0,0,2.57,2.5701,2.5727,2.5727,2.5769,2.5769,0,0,0,0,0,0,0,0,0,0,0,2.5697,2.5698,2.57,2.5701,2.5727,2.5727,2.5769,2.5769,0,0,0,0,0,0,0,0,0,0,0,2.5697,2.5698,2.5698,2.5701,2.5727,2.5727,2.5769,2.5746,0,0,0,0,0,0,0,0,0,0,2.5719,2.5721,2.5698,2.5698,2.5701,2.5727,2.5727,2.5745,2.5747,2.576,0,2.5774,0,2.5772,2.5773,2.5773,0,0,0,2.5697,2.5719,2.5722,2.5698,2.5702,2.5727,2.5714,2.5746,2.5749,2.5764,2.5774,2.5776,2.5773,2.5773,2.5773,2.5863,2.5863,0,0,2.5695,2.5705,2.572,2.5724,2.5721,2.5714,2.5715,2.5748,2.5759,2.5774,2.5776,2.5774,2.5773,2.5774,2.5862,2.5863,0,0,0,2.5694,2.5704,2.5706,2.5723,2.5727,2.5714,2.5716,2.5758,2.5758,2.5777,2.5774,2.5774,2.5774,2.5862,2.5863,2.5901,0,0,0,2.5693,2.5703,2.5705,2.5711,2.5726,2.5743,2.5726,2.5755,2.5759,2.5774,2.5774,2.5775,2.5861,2.5862,2.5899,2.5918,0,0,0,2.5694,2.5703,2.5709,2.5711,2.5723,2.5742,2.5744,2.5756,2.5758,2.5773,2.5775,2.586,2.5862,2.5897,2.5914,2.5944,0,0,0,2.5697,2.5743,2.5709,2.5759,2.5723,2.5766,2.5743,2.5775,2.5793,2.5774,2.5861,2.5862,2.5896,2.5912,2.5942,2.597,2.5983,0,0,2.5759,2.575,2.5779,2.575,2.5801,2.5762,2.5818,2.5826,2.5818,2.5848,2.585,2.59,2.5914,2.5943,2.6054,2.6065,0,0,0,2.5801,2.5822,2.5834,2.5851,2.5859,2.5866,2.5864,2.5867,2.5892,2.5836,2.5919,2.5927,2.5944,2.5957,2.5966,2.5979,2.5869,2.5869,2.5869,2.5902,2.5891,2.5937,2.5929,2.5947,2.5944,2.5957,2.5961,2.5944,2.5964,2.5972,2.6041,2.6057,2.6063,2.6078,2.5987,2.5987,2.5987,2.5987,2.5991,2.6018,2.5996,2.6032,2.602,2.6051,2.605,2.6038,2.6064,2.6033,2.6048,2.6015,2.6075,2.6087,2.599,2.599,2.5989,2.5989,2.5989,2.6055,2.6066,2.6069,2.6094,2.6114,2.6105,2.6132,2.612,2.6108,2.6123,2.613,2.613,2.6127,2.6127,2.6128,2.6128,2.6128,2.6128,2.6128,2.612,2.6122,2.6146,2.6158,2.6168,2.618,2.6179,2.6188,2.6195,2.6184,2.6184,2.6165,2.6083,2.6063,2.6132,2.6131,2.6131,2.6131,2.613,2.6213,2.619,2.6227,2.6238,2.6251,2.6272,2.6257,2.6277,2.6283,2.6296,2.6275,2.6216,2.6206,2.6199,2.6181,2.6277,2.6277,2.6277,2.6277,2.6267,2.6261,2.6296,2.6313,2.6328,2.6319,2.6361,2.636,2.6356,2.6359,2.6343,2.632,2.6313,2.6306,2.6297,2.628,2.64,2.64,2.64,2.6323,2.6318,2.6356,2.6353,2.6362,2.6371,2.641,2.643,2.642,2.6404,2.6361,2.6356,2.6317,2.6305,2.6288,2.6274,2.6243,0,0]}]]